Location: Namasale
(1.5000°N, 32.6167°E)
Time: 17:05:29
(UTC+00:00)

Vanguard 2 Rocket - Pass Details

Date: 20 April 2021
Orbit: 554 x 3326 km, 32.9° (Epoch: 10 May)

Event Time Altitude Azimuth Distance (km) Brightness Sun altitude
Rises 19:30:52 0° 302° (WNW) 5,976 11.6 -53.3°
Reaches altitude 10° 19:35:30 10° 301° (WNW) 4,520 10.8 -54.4°
Enters shadow 19:40:48 28° 297° (WNW) 2,799 9.5 -55.6°
